Weather in Dzhogino

Russia / Irkutsk Oblast     56°38′54″N   98°09′47″E
temp.,
°C
wind,
m/s
gust,
m/s
humid.,
%
clouds,
%
prec.,
mm/h
press.,
hPa
HPBL,
m
19 september, sun
sun1923:00+12sw2283100 0.0 100742
02:00+12w31195100 0.0 1008500
05:00+11wsw2699100 2.1 1009343
08:00+10sw129756 4.1 101169
11:00+13s128296 0.0 1010366
14:00+16wsw227055 0.9 1009840
17:00+16e1163100 0.3 1009793
20:00+12e2181100 0.3 100811
20 september, mon
mon2023:00+12e2280100 0.0 100653
02:00+12e2279100 0.0 100451
05:00+10sw2288100 0.3 100436
08:00+10w2693100 0.4 1004167
11:00+13wnw2675100 0.3 1003418
14:00+12wnw2376100 0.8 1004461
17:00+9w61092100 1.0 1007855
20:00+7w51192100 2.8 1010959
21 september, tue
tue2123:00+5wsw41093100 0.1 1011634
02:00+2ssw22965 0.1 101229
05:00+1s239817 0.0 101372
08:00+1ssw27977 0.0 1013192
11:00+7sw367058 0.0 1012781
14:00+9sw4759100 0.3 10111449
17:00+7sw3887100 0.9 1012877
20:00+5wsw3893100 1.4 1013476
22 september, wed
wed2223:00+2ssw249897 0.1 1014126
02:00+2sw3898100 0.1 1015368
05:00−1ssw269938 0.0 1017138
08:00−1s289984 0.0 1018285
11:00+2wsw3685100 0.1 10191022
14:00+5wsw3672100 0.1 10191178
17:00+5w3678100 0.4 1020912
20:00+1sw119458 0.5 102310
23 september, thu
thu2323:00−1s119560 0.0 102412
02:00−2sse219648 0.0 102416
05:00−2se219646 0.0 102418
08:00−1se229262 0.0 102447
11:00+5se356464 0.0 1022576
14:00+9sse244480 0.0 10211627
17:00+9se2447100 0.0 10201456
20:00+5ene1165100 0.0 102110